Theta_e
306 308 312 305 306 311 314 315 315 312 312 316 317 317 316 315 317 316 314 314 317 316 319 340 337 336 339 341 343 343 343 345 345 345 343 343 346 342 342 341 338 338 337 336
304 306 308 312 309 309 313 316 316 314 315 316 315 315 317 317 316 316 317 314 315 318 316 333 339 336 335 340 343 343 343 344 345 345 345 343 343 345 343 343 342 340 338 339
304 305 307 308 311 311 309 309 314 315 315 315 315 315 315 316 318 316 317 317 315 316 318 318 337 334 333 338 341 343 343 343 345 345 346 345 344 344 344 344 344 342 342 339
305 305 306 308 309 310 311 310 311 313 315 316 315 315 316 317 317 315 316 314 313 313 317 318 325 333 333 338 340 342 342 342 344 345 345 346 345 345 344 343 344 343 342 342
311 310 306 305 306 310 314 314 312 313 314 314 314 314 316 317 318 316 316 316 316 315 314 315 316 331 335 336 338 341 341 341 342 345 345 345 345 344 343 344 343 344 343 343
309 309 309 306 307 308 310 312 314 312 312 313 314 314 314 317 317 317 318 317 317 315 314 316 317 321 334 336 337 339 341 341 341 342 344 344 344 344 343 343 343 343 344 343
309 309 309 307 306 307 310 316 318 312 312 315 314 316 315 316 318 318 318 317 317 317 317 312 315 315 319 334 339 338 340 341 342 341 342 343 343 343 343 342 342 343 343 343
309 310 310 309 309 312 313 317 319 315 313 315 316 317 316 316 316 317 317 316 316 316 317 316 313 313 318 320 326 334 337 339 342 342 342 342 342 342 342 342 342 342 343 343
311 310 309 309 309 311 313 315 313 312 316 316 317 317 316 317 316 316 316 316 317 316 318 317 317 316 318 321 322 323 324 327 333 343 343 343 342 343 344 343 343 343 344 344
311 313 309 309 309 310 310 312 313 317 321 320 316 317 317 316 316 316 316 315 315 317 318 319 318 318 320 321 322 324 325 327 328 330 337 344 346 346 345 346 347 346 346 346
311 311 308 310 309 309 310 314 315 315 316 316 321 315 314 315 316 317 317 316 316 316 316 317 317 318 319 320 323 327 326 325 325 326 326 327 327 328 330 340 349 347 348 347
310 311 312 308 307 309 312 313 314 318 319 318 321 319 314 315 316 317 316 316 316 315 315 316 315 314 317 319 321 321 321 322 330 330 330 331 332 332 332 330 331 350 349 349
305 306 307 306 306 308 310 311 312 314 316 319 320 320 315 313 315 316 316 316 315 315 313 313 315 316 317 320 320 320 320 320 320 320 327 333 334 336 337 335 334 337 347 350
305 306 308 309 310 310 311 311 311 313 316 316 317 317 313 314 314 313 314 314 314 314 313 313 313 315 317 319 319 319 319 319 319 319 320 324 331 331 334 337 338 335 334 341
302 308 308 307 307 307 307 308 308 310 310 312 311 311 310 310 310 310 310 312 312 313 314 314 312 313 315 316 316 318 318 318 319 319 319 319 321 326 331 338 338 337 337 334
300 301 302 301 302 304 305 305 306 307 307 309 309 310 308 309 309 310 311 312 313 314 312 313 313 313 313 313 313 314 316 319 320 320 321 320 320 319 322 330 336 338 338 341
300 301 300 302 304 304 298 305 306 307 307 308 309 310 310 309 309 309 312 312 312 312 311 312 311 313 313 313 312 312 313 315 317 315 315 315 316 317 319 322 334 338 339 339
300 301 301 300 303 296 301 304 304 305 308 311 311 310 309 309 309 309 309 309 310 310 310 309 309 309 309 310 311 311 311 312 316 315 314 314 314 317 318 322 331 335 337 338
301 301 303 304 305 304 305 306 309 308 310 309 308 308 307 308 308 309 307 306 307 307 307 307 306 306 307 307 309 310 310 311 312 313 313 314 314 313 314 316 318 331 336 337
303 303 305 304 310 305 308 308 307 308 308 306 306 306 307 308 308 307 304 305 306 305 305 305 305 305 305 306 306 307 308 309 310 312 313 312 312 312 315 316 315 319 326 335
302 304 307 309 310 311 308 307 306 309 307 305 307 308 307 307 306 303 304 304 304 304 305 305 304 304 304 304 304 305 306 307 308 309 309 312 312 312 313 316 317 317 321 332
301 300 299 301 298 301 305 304 306 306 303 306 306 306 306 305 303 303 303 303 303 302 302 302 303 303 302 302 302 303 305 305 306 307 309 310 311 312 313 313 315 319 323 330
299 301 301 302 302 301 300 302 306 304 305 305 304 304 304 302 302 302 302 301 301 301 301 301 301 301 301 301 301 302 302 303 304 306 307 308 309 311 311 310 312 316 323 327
299 299 298 299 300 299 299 300 302 302 302 301 300 302 302 301 301 301 301 301 300 300 300 300 300 299 299 299 299 300 300 301 302 303 305 307 308 309 311 310 313 315 321 322
297 298 298 298 299 299 300 300 301 301 301 302 301 301 300 300 300 300 301 300 299 299 298 297 297 297 297 297 298 298 299 300 301 301 302 304 306 308 309 312 313 314 316 320
297 297 298 298 299 299 300 300 300 301 301 301 300 300 299 299 299 299 299 298 297 297 296 295 295 295 294 294 295 295 296 297 298 301 302 303 305 306 308 310 316 320 318 317
Wind_Speed
6 6 12 10 14 19 17 21 22 15 9 18 18 18 21 16 19 19 13 11 18 14 11 34 34 38 44 46 46 47 44 42 42 37 37 35 34 38 39 35 40 40 40 42
8 13 15 14 18 19 21 23 26 22 19 18 14 11 13 18 21 22 21 13 12 20 12 13 33 37 39 45 47 47 48 47 46 40 37 35 33 32 34 38 37 41 43 41
7 16 23 22 21 20 23 23 21 21 16 22 17 19 16 18 20 17 20 18 9 15 21 11 18 28 38 44 47 47 49 51 49 44 34 30 29 29 29 36 40 46 42 45
7 8 19 24 23 20 23 19 22 22 16 15 2 15 14 14 17 9 18 10 8 9 13 18 10 14 35 42 51 52 50 49 50 48 40 37 35 31 38 40 37 38 46 45
11 16 17 21 20 23 17 15 21 23 15 15 11 7 10 12 20 8 8 8 8 9 10 12 9 18 26 39 46 50 52 50 46 47 45 43 36 36 31 32 34 37 39 46
11 12 15 21 16 22 25 22 20 16 15 16 16 14 12 10 11 7 5 9 10 6 10 10 8 8 23 24 33 41 42 42 45 47 46 44 42 37 33 34 36 37 41 44
20 10 15 8 15 19 19 13 8 10 11 11 14 12 12 7 11 9 11 8 8 9 9 10 11 8 10 20 28 33 38 40 46 48 49 47 46 45 42 40 39 35 34 36
8 15 17 20 16 14 10 7 6 10 9 12 15 13 5 11 14 18 17 17 8 9 8 11 10 3 10 11 20 29 29 30 35 41 45 48 47 43 42 39 36 39 37 40
7 9 24 10 16 4 8 10 11 9 7 9 4 11 15 17 19 16 16 18 9 9 5 7 11 4 3 7 18 15 12 20 31 43 40 36 38 35 33 37 37 38 40 37
5 11 8 22 8 8 11 8 6 2 3 6 5 7 8 7 21 16 17 18 13 7 5 8 7 9 22 17 4 17 19 14 15 20 32 34 33 34 38 35 35 37 37 39
5 3 13 13 7 16 15 8 6 1 3 3 4 5 8 6 17 12 18 15 18 15 12 7 7 11 16 24 26 16 8 10 12 7 8 9 15 20 28 31 38 39 40 41
4 4 5 18 21 12 9 10 12 4 7 4 3 7 19 15 15 18 13 14 15 10 9 9 9 12 12 14 15 19 24 27 11 2 7 10 12 15 20 29 30 36 42 39
6 3 7 13 5 9 8 9 8 5 3 4 4 7 15 21 10 13 11 13 11 13 10 9 9 8 9 16 18 20 21 19 18 16 12 3 5 10 16 21 23 25 31 40
7 5 6 6 11 14 14 14 11 6 3 6 6 19 18 22 14 11 7 9 13 10 8 6 8 7 9 9 9 9 10 11 12 14 14 16 13 12 17 21 24 27 29 29
4 3 6 13 15 16 18 20 16 13 10 7 10 17 17 13 13 12 14 7 9 16 18 15 7 8 9 16 22 23 18 10 9 9 10 15 17 19 21 23 24 24 27 31
8 4 13 14 13 13 18 18 19 17 15 13 12 15 14 14 15 19 16 19 19 18 19 20 19 14 15 20 20 25 29 22 13 8 7 9 12 20 25 28 28 26 24 25
7 3 2 5 6 13 8 9 14 12 12 9 5 3 14 17 15 14 14 16 17 17 15 16 17 16 16 16 24 26 27 26 14 13 14 15 17 19 25 30 28 28 28 25
7 2 2 5 5 3 8 9 13 13 6 10 10 11 11 13 18 7 17 16 14 14 16 15 14 21 27 29 32 27 28 28 24 13 13 17 18 21 24 26 31 32 29 29
16 7 3 2 3 9 10 8 8 4 4 9 10 9 8 12 10 5 16 14 11 11 10 17 23 25 27 28 29 28 30 32 29 27 21 16 16 23 29 29 29 31 30 29
14 13 6 2 4 5 3 19 21 10 3 14 15 16 21 8 7 5 12 14 14 18 18 18 22 26 26 29 32 30 25 25 24 28 27 28 29 28 29 29 27 30 30 30
4 2 11 9 5 4 11 14 17 4 4 14 11 13 12 6 5 7 11 13 18 20 23 24 22 22 27 31 32 30 30 27 30 31 35 38 34 32 30 27 25 26 27 28
2 2 2 2 1 6 9 12 3 7 13 5 11 8 10 12 10 10 14 15 14 16 22 25 25 21 26 32 32 33 32 37 37 34 32 35 38 36 20 14 18 22 24 23
4 4 1 2 4 17 11 11 7 7 3 10 7 10 5 10 9 11 12 13 14 20 22 24 23 28 29 31 29 30 37 39 37 35 35 34 37 36 26 21 19 15 21 22
5 7 3 9 1 16 15 12 9 13 11 14 12 4 7 6 9 13 12 12 13 21 23 25 26 26 31 31 32 35 38 40 36 35 34 34 32 34 36 26 22 19 16 19
6 7 5 12 14 12 10 13 10 14 9 6 7 7 8 9 11 12 13 11 15 23 28 28 28 27 32 36 37 38 36 35 36 36 36 34 31 32 33 32 27 22 20 16
10 16 9 10 13 12 10 10 16 6 5 6 5 6 5 6 11 12 11 17 20 23 29 29 30 31 35 38 41 44 39 35 38 35 34 31 29 29 29 30 22 19 16 15
Wind_Direction
283 275 239 239 226 252 261 275 275 273 252 254 258 260 249 236 239 236 235 224 237 246 226 198 195 186 179 178 178 182 183 191 189 192 198 208 205 205 212 211 215 217 220 220
331 284 271 267 243 254 254 253 259 277 275 285 285 279 272 245 236 225 227 225 230 241 235 214 199 192 178 178 180 181 185 188 192 194 200 206 209 210 213 217 218 218 221 224
299 297 304 296 277 250 255 259 266 263 271 273 274 284 289 285 234 228 217 228 217 233 242 223 212 189 186 176 180 182 184 188 190 194 195 204 208 215 217 219 221 222 222 224
271 291 297 299 290 285 254 255 265 269 271 256 219 276 277 293 266 214 212 218 225 243 238 237 188 202 187 179 181 184 186 187 190 190 189 193 202 206 214 217 220 221 223 225
277 299 292 287 295 297 303 306 252 260 267 271 238 262 264 272 289 236 247 269 273 263 250 234 204 188 210 180 183 185 186 187 187 188 191 194 201 213 218 217 222 223 222 226
284 277 272 262 277 292 293 294 293 260 249 257 255 229 249 263 265 276 228 259 266 289 256 253 221 196 193 205 191 184 183 186 188 190 194 197 202 206 211 216 217 219 222 223
326 322 330 218 269 283 271 301 283 259 247 253 249 232 227 252 267 281 310 293 341 324 342 254 239 178 172 178 182 183 184 189 193 195 197 201 204 206 209 210 212 215 217 217
342 324 14 318 313 318 297 270 279 277 257 271 262 243 247 256 267 279 287 294 287 297 316 322 245 222 142 170 201 195 184 196 200 199 202 205 209 210 213 215 215 215 217 218
311 300 307 330 332 281 300 271 288 304 293 274 252 299 290 231 256 273 275 273 272 264 278 354 340 14 98 147 154 186 229 233 207 205 207 211 214 215 216 221 223 221 222 221
309 299 308 330 304 331 347 339 275 255 291 277 269 230 275 255 244 260 273 286 290 291 229 91 50 22 37 25 312 159 158 162 218 213 205 210 217 222 225 230 231 228 229 227
351 292 305 326 10 330 326 20 2 290 130 196 322 296 215 316 356 7 22 17 19 13 355 31 59 55 38 41 46 32 39 118 140 179 231 247 247 247 242 237 235 234 234 229
341 271 288 301 289 47 77 57 34 7 351 312 269 263 280 350 344 8 348 2 353 7 359 12 12 354 31 44 42 42 44 49 31 267 222 241 249 250 249 251 255 241 235 234
339 339 325 321 356 5 43 3 5 309 220 281 340 278 338 322 351 338 338 342 348 343 344 354 6 16 17 50 53 43 33 26 29 28 19 360 344 318 294 279 263 258 246 241
297 223 225 261 292 310 314 321 313 256 259 295 273 287 309 311 326 322 321 330 317 317 313 340 346 341 347 359 8 14 9 4 6 353 354 1 347 323 308 294 280 269 262 255
348 293 316 294 307 311 304 302 313 307 292 270 285 289 304 301 326 336 339 316 321 334 328 331 337 332 354 19 15 355 331 319 312 315 315 314 319 325 308 297 290 277 267 262
334 296 325 303 291 282 290 289 287 284 285 277 289 289 347 359 20 1 40 29 23 17 17 3 27 359 18 12 11 9 3 349 341 350 344 334 314 308 314 299 295 292 284 273
261 258 323 270 301 325 315 237 249 268 286 288 293 316 347 342 338 336 33 24 30 16 9 2 0 357 351 358 356 358 351 337 323 338 336 330 322 313 310 309 289 286 287 285
229 250 239 278 310 347 244 292 301 294 359 32 18 3 347 341 337 359 23 18 19 5 359 354 357 349 343 339 342 342 341 337 317 307 311 308 309 308 305 311 301 282 283 284
206 209 276 267 225 269 292 324 19 49 38 19 355 331 330 338 335 0 11 5 355 6 359 347 345 342 341 339 339 345 342 335 326 313 304 301 300 301 297 295 297 302 283 281
184 197 185 173 246 237 28 6 344 310 199 359 346 335 329 355 341 323 357 344 352 351 349 342 345 339 339 338 338 332 325 320 318 315 309 308 297 287 282 281 289 291 301 283
3 172 222 239 266 266 33 2 340 296 297 325 338 324 348 331 293 322 346 358 347 341 341 336 338 333 331 337 337 327 323 313 313 319 320 304 290 278 280 275 280 289 294 290
303 309 278 279 296 273 349 335 308 233 276 317 315 309 320 321 323 338 348 348 350 341 336 333 329 334 332 326 327 319 313 309 316 315 306 306 299 278 263 269 287 288 284 283
270 182 255 265 259 319 347 337 228 244 224 268 259 270 299 330 339 338 333 334 330 327 326 327 325 319 312 309 308 301 298 303 305 306 303 299 298 289 252 252 261 274 274 266
292 324 278 322 327 319 311 299 348 339 328 320 311 350 2 344 335 330 328 329 330 325 322 324 320 312 304 300 294 285 287 291 295 294 293 294 290 290 272 243 242 250 255 262
219 294 258 278 292 298 298 314 314 304 309 360 2 15 353 346 333 326 318 333 325 318 315 316 312 306 300 301 295 290 289 290 286 286 285 284 287 280 282 251 234 230 244 248
247 255 256 266 274 274 288 299 296 317 12 6 15 338 344 345 319 324 330 324 319 316 315 311 309 306 303 300 295 292 290 286 283 282 276 276 276 285 283 257 218 215 240 248